Regional Weather Roundup
Issued by NWS

Home | Current Version | Previous Version | Text Only | Print | Product List | Glossary On
Versions: 1 2 3 4 5 6 7 8 9 10 11 12 13 14 15 16 17 18 19 20 21 22 23 24 25 26 27 28
000
ASUS45 KREV 162310
RWRNV
NEVADA REGIONAL WEATHER ROUNDUP
NATIONAL WEATHER SERVICE RENO NV
300 PM PST SAT DEC 16 2017

NOTE: "FAIR" INDICATES FEW OR NO CLOUDS BELOW 12,000 FEET WITH NO
SIGNIFICANT WEATHER AND/OR OBSTRUCTIONS TO VISIBILITY.

NVZ001-003-004-170000-
WESTERN NEVADA

CITY           SKY/WX    TMP DP  RH WIND       PRES   REMARKS
RENO           MOSUNNY   38  16  40 N13       30.11R
CARSON CITY    FAIR      36  16  44 NE12      30.09R
MINDEN         MIX PCPN  36  14  41 NE15G22   30.09R
SLIDE MTN        N/A     14  12  92 NE7         N/A
PYRAMID LAKE     N/A     37 N/A N/A N17         N/A
FALLON         PTSUNNY   38   9  30 N13       30.08R
LOVELOCK       MOSUNNY   38  17  42 N16G25    30.10R
HAWTHORNE      CLOUDY    37  18  44 N18G24    30.05S
$$

NVZ002-CAZ072-073-170000-
NORTHERN AND CENTRAL SIERRA

CITY           SKY/WX    TMP DP  RH WIND       PRES   REMARKS
S. LAKE TAHOE  SUNNY     30  13  49 NE17G26   29.99R
TRUCKEE        SUNNY     30  12  47 N15G26    30.04R
SQUAW VLY 8000   N/A     19  16  86 NE15        N/A
SUSANVILLE     SUNNY     39  18  41 NE12      30.13R
BLUE CANYON    SUNNY     40  -2  17 NE13G32   29.91S
MAMMOTH LAKES  CLOUDY    32  17  54 W9        29.97S
$$

NVZ030-031-036-170000-
NORTHERN NEVADA

CITY           SKY/WX    TMP DP  RH WIND       PRES   REMARKS
ELKO           MOSUNNY   32  16  51 N12       30.01R
WINNEMUCCA     PTSUNNY   35  20  54 N13       30.10R
WENDOVER       MOCLDY    38  18  44 N17G26    29.96R
$$

NVZ035-037-170000-
CENTRAL NEVADA

CITY           SKY/WX    TMP DP  RH WIND       PRES   REMARKS
ELY            CLOUDY    29  24  82 N14       29.91R
EUREKA           N/A     28  17  63 N16G23    29.98R
$$

NVZ013-014-170000-
SOUTH CENTRAL NEVADA

CITY           SKY/WX    TMP DP  RH WIND       PRES   REMARKS
TONOPAH        PTSUNNY   42  16  34 N21G31    29.91R
$$

NVZ017-020-022-170000-
SOUTHERN NEVADA

CITY           SKY/WX    TMP DP  RH WIND       PRES   REMARKS
LAS VEGAS      PTSUNNY   60  15  17 E3        29.73S
N. LAS VEGAS   SUNNY     60  11  14 S6        29.73R
NELLIS AFB     PTSUNNY   60  14  16 E5        29.72S
HENDERSON      SUNNY     58  14  17 NE5       29.75S
MERCURY        CLOUDY    54  26  34 NE18G25   29.79R
$$




USA.gov is the U.S. government's official web portal to all federal, state and local government web resources and services.